TimeEDT,TemperatureF,Dew PointF,Humidity,Sea Level PressureIn,VisibilityMPH,Wind Direction,Wind SpeedMPH,Gust SpeedMPH,PrecipitationIn,Events,Conditions,WindDirDegrees,DateUTC
12:53 AM,18.0,9.0,68,29.97,10.0,WNW,6.9,-,N/A,,Clear,290,2013-03-21 04:53:00
2:53 AM,17.1,10.0,74,29.96,10.0,West,5.8,-,N/A,,Clear,270,2013-03-21 06:53:00
3:53 AM,17.1,10.9,77,29.94,10.0,West,6.9,-,N/A,,Clear,260,2013-03-21 07:53:00
4:53 AM,17.1,10.9,77,29.93,10.0,West,9.2,-,N/A,,Scattered Clouds,260,2013-03-21 08:53:00
5:53 AM,17.1,12.0,81,29.93,10.0,West,9.2,-,N/A,,Mostly Cloudy,280,2013-03-21 09:53:00
6:53 AM,17.1,12.0,81,29.93,10.0,West,8.1,-,N/A,,Clear,280,2013-03-21 10:53:00
7:53 AM,18.0,12.9,81,29.93,10.0,West,10.4,-,N/A,,Overcast,270,2013-03-21 11:53:00
8:53 AM,19.0,14.0,81,29.94,9.0,West,11.5,-,N/A,,Overcast,260,2013-03-21 12:53:00
9:43 AM,19.4,14.0,80,29.92,10.0,West,16.1,-,N/A,,Overcast,260,2013-03-21 13:43:00
9:53 AM,21.0,14.0,74,29.94,10.0,West,13.8,-,N/A,,Overcast,270,2013-03-21 13:53:00
10:53 AM,24.1,15.1,69,29.94,10.0,West,16.1,-,N/A,,Mostly Cloudy,260,2013-03-21 14:53:00
11:53 AM,27.0,16.0,63,29.94,10.0,West,17.3,21.9,N/A,,Overcast,280,2013-03-21 15:53:00
12:53 PM,27.0,17.1,66,29.95,6.0,WNW,13.8,24.2,0.00,Snow,Light Snow,290,2013-03-21 16:53:00
1:05 PM,26.6,17.6,69,29.92,5.0,West,15.0,-,0.00,Snow,Light Snow,280,2013-03-21 17:05:00
1:26 PM,28.4,17.6,64,29.92,6.0,West,16.1,23.0,0.00,Snow,Light Snow,280,2013-03-21 17:26:00
1:35 PM,28.4,17.6,64,29.92,5.0,West,16.1,-,0.00,Snow,Light Snow,280,2013-03-21 17:35:00
1:53 PM,28.0,16.0,61,29.94,10.0,West,15.0,-,0.00,,Overcast,270,2013-03-21 17:53:00
2:50 PM,28.4,19.4,69,29.91,6.0,West,18.4,25.3,0.00,Snow,Light Snow,260,2013-03-21 18:50:00
2:53 PM,28.9,19.0,67,29.94,6.0,West,17.3,-,0.00,Snow,Light Snow,260,2013-03-21 18:53:00
3:12 PM,28.4,19.4,69,29.91,9.0,West,13.8,-,0.00,,Overcast,280,2013-03-21 19:12:00
3:53 PM,30.0,18.0,61,29.94,8.0,West,13.8,21.9,0.00,Snow,Light Snow,280,2013-03-21 19:53:00
4:53 PM,30.0,18.0,61,29.94,10.0,West,16.1,-,0.00,,Overcast,280,2013-03-21 20:53:00
5:53 PM,30.9,16.0,54,29.94,10.0,WNW,17.3,23.0,N/A,,Overcast,300,2013-03-21 21:53:00
6:53 PM,30.0,17.1,59,29.94,10.0,West,15.0,-,N/A,,Overcast,280,2013-03-21 22:53:00
7:53 PM,28.9,16.0,58,29.96,10.0,WNW,11.5,-,N/A,,Overcast,300,2013-03-21 23:53:00
8:53 PM,28.9,16.0,58,29.96,10.0,WNW,10.4,-,N/A,,Overcast,300,2013-03-22 00:53:00
9:53 PM,27.0,17.1,66,29.97,10.0,WNW,8.1,-,N/A,,Partly Cloudy,290,2013-03-22 01:53:00
10:53 PM,24.1,17.1,75,29.98,10.0,WNW,6.9,-,N/A,,Clear,290,2013-03-22 02:53:00
11:53 PM,24.1,16.0,71,29.99,10.0,WNW,8.1,-,N/A,,Clear,290,2013-03-22 03:53:00